Regional Weather Roundup
Issued by NWS

Home | Current Version | Previous Version | Graphics & Text | Print | Product List | Glossary On
Versions: 1 2 3 4 5 6 7 8 9 10 11 12 13 14 15 16 17 18 19 20 21 22 23 24 25 26 27 28 29 30 31 32 33 34 35 36 37 38 39 40 41 42 43 44 45 46 47 48 49 50
000
ASUS45 KBOI 272010
RWRID
WEATHER ROUNDUP FOR IDAHO
NATIONAL WEATHER SERVICE BOISE ID
100 PM MST THU NOV 27 2014

NOTE: "FAIR" INDICATES FEW OR NO CLOUDS BELOW 12000 FEET
WITH NO SIGNIFICANT WEATHER AND/OR OBSTRUCTIONS TO VISIBILITY

IDZ012-014-272100-
SOUTHWEST IDAHO


CITY           SKY/WX    TMP DP  RH WIND       PRES   REMARKS
BOISE          LGT RAIN  54  42  64 NW8       30.14R
CALDWELL       NOT AVBL
MOUNTAIN HOME  CLOUDY    53  45  75 E13       30.11F
$$

IDZ016-017-272100-
SOUTHCENTRAL IDAHO


CITY           SKY/WX    TMP DP  RH WIND       PRES   REMARKS
BURLEY         MOSUNNY   62  29  28 SW10      30.16F
JEROME         MOSUNNY   60  28  29 S6        30.17F
TWIN FALLS     MOSUNNY   65  30  27 SW9       30.16F
$$

IDZ019>023-272100-
SOUTHEAST IDAHO


CITY           SKY/WX    TMP DP  RH WIND       PRES   REMARKS
IDAHO FALLS    PTSUNNY   57  33  40 SW22G29   30.15F
POCATELLO      MOSUNNY   60  29  30 SW17      30.19F
REXBURG        MOSUNNY   49  32  52 SW13      30.15F
$$

IDZ006-010-011-018-031-032-272100-
CENTRAL IDAHO MOUNTAINS


CITY           SKY/WX    TMP DP  RH WIND       PRES   REMARKS
MCCALL         CLOUDY    47  29  49 SE13      30.09F
HAILEY         PTSUNNY   54  34  47 W6        30.20F
STANLEY          N/A     48  31  51 SE12G22   30.18F
SALMON         CLOUDY    39  34  81 N5        30.07F
CHALLIS        CLOUDY    53  33  46 VRB7      30.12F
$$

IDZ002-004-006-007-026-272100-
NORTHERN IDAHO


CITY           SKY/WX    TMP DP  RH WIND       PRES   REMARKS
LEWISTON       CLOUDY    53  44  71 NW3       29.88F
LOWELL           N/A     46  41  82 CALM      30.00F
COEUR D`ALENE  CLOUDY    54  43  66 SW12G25   29.85S
MULLAN PASS    LGT RAIN  36  33  89 SW10G31   29.90F WCI  28
$$



USA.gov is the U.S. government's official web portal to all federal, state and local government web resources and services.